Location: Albuquerque Trailhead
(34.7934°N, 106.3736°W)
Time: 00:29:18
(UTC+00:00)

Cosmos 1140 Rocket - Pass Details

Date: 20 June 2021
Orbit: 744 x 767 km, 74.1° (Epoch: 01 August)

Event Time Altitude Azimuth Distance (km) Brightness Sun altitude
Rises 02:45:42 0° 342° (NNW) 3,241 7.7 -5.0°
Reaches altitude 10° 02:48:05 10° 342° (NNW) 2,310 6.9 -5.4°
Maximum altitude 02:53:21 87° 257° (WSW) 771 3.6 -6.3°
Drops below altitude 10° 02:58:33 10° 165° (SSE) 2,288 5.5 -7.2°
Enters shadow 03:00:37 - 165° (SSE) 3,096 6.2 -7.5°
